Location: Dal�� Lhota
(48.7500°N, 14.0167°E)
Time: 08:58:14
(UTC+00:00)

Vanguard 1 - All Passes

Search period start: 31 July 2021 00:00
Search period end: 10 August 2021 00:00
Orbit: 651 x 3831 km, 34.2° (Epoch: 30 July)

Date Brightness Start Highest point End Pass type
(mag) Time Alt. Az. Time Alt. Az. Time Alt. Az.
31 Jul - 10:35:09 10° SSW 10:39:28 22° SSE 10:45:33 10° ESE daylight
31 Jul - 12:52:56 10° WSW 12:59:08 29° S 13:09:03 10° SE daylight
31 Jul - 15:12:56 10° WSW 15:20:06 21° SSW 15:30:26 10° SSE daylight
01 Aug - 10:55:29 10° SW 11:00:02 24° SSE 11:06:36 10° ESE daylight
01 Aug - 13:13:45 10° WSW 13:19:55 27° S 13:29:32 10° SE daylight
01 Aug - 15:34:50 10° WSW 15:40:59 16° SSW 15:49:09 10° S daylight
02 Aug - 08:59:58 10° S 09:01:44 12° SSE 09:03:42 10° SE daylight
02 Aug - 11:15:58 10° SW 11:20:39 25° S 11:27:31 10° ESE daylight
02 Aug - 13:34:44 10° WSW 13:40:44 23° SSW 13:49:42 10° SE daylight
02 Aug - 15:58:06 10° SW 16:01:52 12° SSW 16:06:14 10° S daylight
03 Aug - 09:19:26 10° SSW 09:22:12 15° SSE 09:25:26 10° SE daylight
03 Aug - 11:36:34 10° SW 11:41:19 24° S 11:48:16 10° SE daylight
03 Aug - 13:55:59 10° WSW 14:01:34 19° SSW 14:09:26 10° SSE daylight
04 Aug - 09:39:30 10° SSW 09:42:42 17° SSE 09:46:40 10° SE daylight
04 Aug - 11:57:19 10° SW 12:02:02 23° S 12:08:49 10° SE daylight
04 Aug - 14:17:43 10° SW 14:22:24 15° SSW 14:28:30 10° S daylight
05 Aug - 09:59:48 10° SW 10:03:16 19° S 10:07:38 10° SE daylight
05 Aug - 12:18:14 10° SW 12:22:46 20° S 12:29:06 10° SE daylight
05 Aug - 14:40:55 10° SW 14:43:16 11° SSW 14:45:54 10° S daylight
06 Aug - 10:20:20 10° SW 10:23:52 19° S 10:28:26 10° SE daylight
06 Aug - 12:39:25 10° SW 12:43:32 17° SSW 12:49:01 10° SSE daylight
07 Aug - 08:23:39 10° S 08:25:29 12° SSE 08:27:26 10° SE daylight
07 Aug - 10:41:01 10° SW 10:44:32 18° S 10:49:02 10° SE daylight
07 Aug - 13:01:08 10° SW 13:04:19 13° SSW 13:08:13 10° S daylight
08 Aug - 08:43:38 10° SSW 08:46:02 14° SSE 08:48:39 10° SE daylight
08 Aug - 11:01:54 10° SW 11:05:12 17° S 11:09:23 10° SSE daylight
09 Aug - 09:03:59 10° SSW 09:06:37 15° S 09:09:33 10° SE daylight
09 Aug - 11:23:04 10° SW 11:25:54 14° S 11:29:20 10° SSE daylight
